This is the latest recevied weather packets stored in our database for station/object LIPZ. If no packets are shown the sender has not sent any weather packets the latest 10 day(s).
| Time | Temp. | Humidity | Pressure | Rain* | Wind** | Luminosity | Snow |
|---|---|---|---|---|---|---|---|
| 1777869904 | 12.22° C | 81% | 1016 hPa | - | - | - | - |
| 1777869004 | 12.22° C | 81% | 1016 hPa | - | - | - | - |
| 1777867205 | 12.78° C | 82% | 1016 hPa | - | - | - | - |
| 1777866304 | 13.89° C | 82% | 1016 hPa | - | - | - | - |
| 1777863604 | 13.89° C | 82% | 1016 hPa | - | - | - | - |
| 1777862704 | 13.89° C | 93% | 1016 hPa | - | - | - | - |
| 1777861805 | 13.89° C | 93% | 1016 hPa | - | - | - | - |
| 1777860903 | 16.11° C | 82% | 1016 hPa | - | - | - | - |
| 1777860004 | 16.11° C | 82% | 1016 hPa | - | - | - | - |
| 1777859104 | 16.11° C | 82% | 1016 hPa | - | - | - | - |
| 1777857303 | 16.11° C | 77% | 1017 hPa | - | - | - | - |
| 1777855503 | 15° C | 76% | 1017 hPa | - | - | - | - |
| 1777854604 | 15° C | 76% | 1017 hPa | - | - | - | - |
| 1777853703 | 15° C | 72% | 1017 hPa | - | - | - | - |
| 1777852810 | 15° C | 72% | 1017 hPa | - | - | - | - |
| 1777851904 | 15° C | 67% | 1017 hPa | - | - | - | - |
| 1777849204 | 15° C | 67% | 1017 hPa | - | - | - | - |
| 1777845605 | 16.11° C | 67% | 1017 hPa | - | - | - | - |
| 1777844703 | 17.22° C | 63% | 1017 hPa | - | - | - | - |
| 1777843804 | 17.22° C | 63% | 1017 hPa | - | - | - | - |
| 1777842904 | 17.78° C | 63% | 1016 hPa | - | - | - | - |
| 1777842004 | 17.78° C | 63% | 1016 hPa | - | - | - | - |
| 1777841104 | 17.78° C | 59% | 1016 hPa | - | - | - | - |
| 1777839304 | 17.78° C | 59% | 1016 hPa | - | - | - | - |
| 1777838404 | 17.78° C | 59% | 1016 hPa | - | - | - | - |
* Rain since midnight (hover to see other rain measurements)
** Current wind speed in m/s (hover to see current wind gust speed)